Tracking 34305 objects as of 7-Jun-2026
HD Live streaming from Space Station
objects crossing your sky now

STARLINK-4742

Track STARLINK-4742 now!
10-day predictions
STARLINK-4742 is classified as:


NORAD ID: 53795
Int'l Code: 2022-111Y
Perigee: 545.7 km
Apogee: 548.0 km
Inclination: 53.2 °
Period: 95.4 minutes
Semi major axis: 6917 km
RCS: Unknown
Launch date: September 11, 2022
Source: United States (US)
Launch site: AIR FORCE EASTERN TEST RANGE (AFETR)
Your satellite tracking list
Your tracking list is empty




NASA's NSSDC Master Catalog

Two Line Element Set (TLE):
1 53795U 22111Y   26157.93496196 -.00000979  00000-0 -43397-4 0  9991
2 53795  53.1723 233.1287 0001626  99.3302 260.7873 15.08843814207160
Source of the keplerian elements: AFSPC